When you browse on this site, cookies collect data to enhance your experience and personalize the content and advertising you see.
Visit our Privacy Policy to learn more. By continuing to use the site, you agree to this use of cookies and data.
  • In Romania
  • List of Countries
  • For 7 days
  • Water Temperature
  • Satellite Maps
  • Weather Map
  • Weather Widgets
  • user-avatar
    Login

    Hourly Weather Misteliha

    Today, 19 February, Tuesday

    Time Temperature Precipitation Wind Pressure Humidity
    00:00 -10°C° 0 mm 3 mps 745 mmHg 82%
    01:00 -11°C° 0 mm 4 mps 744 mmHg 78%
    02:00 -11°C° 0 mm 5 mps 744 mmHg 75%
    03:00 -10°C° 0 mm 5 mps 743 mmHg 74%
    04:00 -10°C° 0 mm 6 mps 742 mmHg 74%
    05:00 -9°C° 0 mm 6 mps 741 mmHg 74%
    06:00 -9°C° 0 mm 6 mps 740 mmHg 75%
    07:00 -8°C° 0 mm 5 mps 739 mmHg 76%
    08:00 -8°C° 0 mm 5 mps 739 mmHg 77%
    09:00 -6°C° 0 mm 5 mps 739 mmHg 78%
    10:00 -5°C° 0 mm 5 mps 738 mmHg 78%
    11:00 -4°C° 0 mm 6 mps 738 mmHg 79%
    12:00 -2°C° 0 mm 5 mps 738 mmHg 80%
    13:00 -2°C° 0 mm 5 mps 737 mmHg 82%
    14:00 -1°C° 0 mm 4 mps 737 mmHg 84%
    15:00 -2°C° 0 mm 4 mps 737 mmHg 86%
    16:00 -2°C° 0 mm 4 mps 737 mmHg 87%
    17:00 -2°C° 0 mm 4 mps 736 mmHg 89%
    18:00 -2°C° 0 mm 4 mps 736 mmHg 90%
    19:00 -3°C° 0 mm 4 mps 735 mmHg 90%
    20:00 -3°C° 0 mm 4 mps 735 mmHg 91%
    21:00 -3°C° 0 mm 4 mps 734 mmHg 91%
    22:00 -3°C° 0 mm 4 mps 733 mmHg 90%
    23:00 -3°C° 0 mm 4 mps 733 mmHg 90%

    Tomorrow, 20 February, Wednesday

    Time Temperature Precipitation Wind Pressure Humidity
    00:00 -3°C° 0.1 mm 4 mps 732 mmHg 90%
    01:00 -3°C° 0.1 mm 4 mps 731 mmHg 90%
    02:00 -3°C° 0.1 mm 4 mps 731 mmHg 90%
    03:00 -2°C° 0.1 mm 4 mps 730 mmHg 89%
    04:00 -2°C° 0.1 mm 4 mps 729 mmHg 89%
    05:00 -2°C° 0.1 mm 4 mps 728 mmHg 88%
    06:00 -2°C° 0.2 mm 5 mps 728 mmHg 89%
    07:00 -1°C° 0.2 mm 5 mps 728 mmHg 90%
    08:00 -1°C° 0.2 mm 5 mps 728 mmHg 90%
    09:00 -1°C° 0 mm 5 mps 728 mmHg 90%
    10:00 0°C° 0 mm 5 mps 728 mmHg 90%
    11:00 0°C° 0 mm 4 mps 728 mmHg 90%
    12:00 0°C° 0.2 mm 4 mps 728 mmHg 90%
    13:00 0°C° 0.2 mm 5 mps 728 mmHg 90%
    14:00 0°C° 0.2 mm 5 mps 728 mmHg 90%
    15:00 0°C° 0.1 mm 4 mps 728 mmHg 90%
    16:00 -1°C° 0.1 mm 4 mps 728 mmHg 91%
    17:00 -1°C° 0.1 mm 4 mps 728 mmHg 91%
    18:00 -1°C° 0.1 mm 4 mps 727 mmHg 91%
    19:00 -1°C° 0.1 mm 4 mps 727 mmHg 92%
    20:00 -1°C° 0.1 mm 4 mps 727 mmHg 92%
    21:00 0°C° 0.1 mm 3 mps 727 mmHg 93%
    22:00 -1°C° 0.1 mm 3 mps 727 mmHg 93%
    23:00 -1°C° 0.1 mm 3 mps 727 mmHg 94%

    Day after tomorrow, 21 February, Thursday

    Time Temperature Precipitation Wind Pressure Humidity
    00:00 -1°C° 0.1 mm 2 mps 727 mmHg 95%
    01:00 -1°C° 0.1 mm 2 mps 727 mmHg 95%
    02:00 -1°C° 0.1 mm 2 mps 727 mmHg 96%
    03:00 -1°C° 0.1 mm 2 mps 727 mmHg 96%
    04:00 -1°C° 0.1 mm 2 mps 727 mmHg 96%
    05:00 -1°C° 0.1 mm 2 mps 727 mmHg 96%
    06:00 -1°C° 0.1 mm 2 mps 727 mmHg 96%
    07:00 -1°C° 0.1 mm 2 mps 728 mmHg 96%
    08:00 -1°C° 0.1 mm 2 mps 728 mmHg 96%
    09:00 -1°C° 0.5 mm 3 mps 729 mmHg 95%
    10:00 -1°C° 0.5 mm 3 mps 730 mmHg 94%
    11:00 -2°C° 0.5 mm 4 mps 730 mmHg 93%
    12:00 -5°C° 0.4 mm 5 mps 731 mmHg 90%
    13:00 -8°C° 0.4 mm 6 mps 732 mmHg 88%
    14:00 -9°C° 0.4 mm 7 mps 733 mmHg 85%
    15:00 -11°C° 0.2 mm 7 mps 734 mmHg 84%
    16:00 -12°C° 0.2 mm 7 mps 735 mmHg 82%
    17:00 -12°C° 0.2 mm 7 mps 737 mmHg 81%
    18:00 -13°C° 0.1 mm 7 mps 738 mmHg 79%
    19:00 -13°C° 0.1 mm 7 mps 739 mmHg 77%
    20:00 -14°C° 0.1 mm 7 mps 740 mmHg 75%
    21:00 -14°C° 0 mm 6 mps 740 mmHg 75%
    22:00 -15°C° 0 mm 6 mps 741 mmHg 75%
    23:00 -16°C° 0 mm 6 mps 742 mmHg 75%

    22 February, Friday

    Time Temperature Precipitation Wind Pressure Humidity
    00:00 -16°C° 0 mm 6 mps 743 mmHg 74%
    01:00 -16°C° 0 mm 6 mps 743 mmHg 74%
    02:00 -17°C° 0 mm 6 mps 744 mmHg 74%
    03:00 -16°C° 0 mm 6 mps 745 mmHg 74%
    04:00 -16°C° 0 mm 6 mps 745 mmHg 75%
    05:00 -16°C° 0 mm 6 mps 746 mmHg 76%
    06:00 -16°C° 0 mm 6 mps 746 mmHg 76%
    07:00 -16°C° 0 mm 6 mps 747 mmHg 77%
    08:00 -16°C° 0 mm 6 mps 747 mmHg 77%
    09:00 -15°C° 0 mm 6 mps 748 mmHg 75%
    10:00 -15°C° 0 mm 6 mps 748 mmHg 73%
    11:00 -14°C° 0 mm 7 mps 748 mmHg 71%
    12:00 -14°C° 0 mm 7 mps 748 mmHg 70%
    13:00 -14°C° 0 mm 7 mps 748 mmHg 69%
    14:00 -14°C° 0 mm 7 mps 749 mmHg 69%
    15:00 -14°C° 0 mm 7 mps 749 mmHg 70%
    16:00 -15°C° 0 mm 6 mps 750 mmHg 72%
    17:00 -15°C° 0 mm 6 mps 750 mmHg 73%
    18:00 -15°C° 0 mm 6 mps 751 mmHg 74%
    19:00 -15°C° 0 mm 6 mps 752 mmHg 75%
    20:00 -15°C° 0 mm 6 mps 752 mmHg 76%
    21:00 -16°C° 0 mm 6 mps 752 mmHg 78%
    22:00 -15°C° 0 mm 5 mps 753 mmHg 80%
    23:00 -15°C° 0 mm 5 mps 753 mmHg 81%

    23 February, Saturday

    Time Temperature Precipitation Wind Pressure Humidity
    00:00 -15°C° 0 mm 5 mps 753 mmHg 83%
    01:00 -16°C° 0 mm 4 mps 754 mmHg 84%
    02:00 -16°C° 0 mm 4 mps 754 mmHg 86%
    03:00 -16°C° 0 mm 4 mps 754 mmHg 88%
    04:00 -16°C° 0 mm 3 mps 754 mmHg 89%
    05:00 -16°C° 0 mm 3 mps 754 mmHg 91%
    06:00 -16°C° 0 mm 3 mps 754 mmHg 91%
    07:00 -16°C° 0 mm 3 mps 754 mmHg 91%
    08:00 -16°C° 0 mm 3 mps 755 mmHg 91%
    09:00 -14°C° 0 mm 2 mps 755 mmHg 89%
    10:00 -13°C° 0 mm 2 mps 755 mmHg 86%
    11:00 -12°C° 0 mm 2 mps 755 mmHg 84%
    12:00 -10°C° 0 mm 2 mps 755 mmHg 82%
    13:00 -9°C° 0 mm 2 mps 755 mmHg 81%
    14:00 -9°C° 0 mm 2 mps 755 mmHg 80%
    15:00 -8°C° 0 mm 1 mps 755 mmHg 84%
    16:00 -9°C° 0 mm 1 mps 755 mmHg 88%
    17:00 -10°C° 0 mm 1 mps 755 mmHg 92%
    18:00 -10°C° 0 mm 1 mps 755 mmHg 92%
    19:00 -11°C° 0 mm 1 mps 756 mmHg 92%
    20:00 -11°C° 0 mm 1 mps 756 mmHg 92%
    21:00 -11°C° 0 mm 1 mps 756 mmHg 90%
    22:00 -11°C° 0 mm 1 mps 757 mmHg 89%
    23:00 -11°C° 0 mm 1 mps 757 mmHg 88%

    24 February, Sunday

    Time Temperature Precipitation Wind Pressure Humidity
    00:00 -11°C° 0 mm 1 mps 757 mmHg 88%
    01:00 -12°C° 0 mm 1 mps 757 mmHg 88%
    02:00 -12°C° 0 mm 1 mps 757 mmHg 87%
    03:00 -14°C° 0 mm 2 mps 757 mmHg 86%
    04:00 -14°C° 0 mm 2 mps 757 mmHg 85%
    05:00 -14°C° 0 mm 2 mps 757 mmHg 84%
    06:00 -13°C° 0 mm 2 mps 757 mmHg 82%
    07:00 -14°C° 0 mm 3 mps 757 mmHg 79%
    08:00 -13°C° 0 mm 3 mps 756 mmHg 76%
    09:00 -12°C° 0 mm 3 mps 756 mmHg 76%
    10:00 -10°C° 0 mm 3 mps 756 mmHg 76%
    11:00 -10°C° 0 mm 4 mps 755 mmHg 77%
    12:00 -9°C° 0 mm 4 mps 755 mmHg 78%
    13:00 -8°C° 0 mm 4 mps 754 mmHg 78%
    14:00 -7°C° 0 mm 4 mps 754 mmHg 79%
    15:00 -7°C° 0 mm 5 mps 753 mmHg 80%
    16:00 -7°C° 0 mm 5 mps 752 mmHg 82%
    17:00 -7°C° 0 mm 5 mps 751 mmHg 83%
    18:00 -7°C° 0 mm 5 mps 750 mmHg 83%
    19:00 -7°C° 0 mm 5 mps 749 mmHg 82%
    20:00 -7°C° 0 mm 5 mps 749 mmHg 82%
    21:00 -7°C° 0 mm 5 mps 748 mmHg 83%
    22:00 -8°C° 0 mm 6 mps 747 mmHg 84%
    23:00 -8°C° 0 mm 6 mps 746 mmHg 84%
    Show more